Погода в Березовке

Россия / Республика Саха (Якутия)     67°07′55″N   156°34′59″E
темп.,
°C
ветер,
м/с
пор.,
м/с
влажн.,
%
обл.,
%
осадки,
мм/ч
давл.,
гПа
погр.,
м
7 марта, вс
вс723:00−24зсз71297100 0.6 995602
02:00−24зсз71297100 0.3 995583
05:00−25зсз81296100 0.5 995595
08:00−25зсз71197100 0.3 996537
11:00−24зсз7993100 0.4 997889
14:00−24зсз7990100 0.1 9981141
17:00−25зсз6994100 0.3 999787
20:00−26з61098100 0.1 1000377
8 марта, пн
пн823:00−27з5998100 0.2 1001289
02:00−28з5998100 0.1 1001291
05:00−30з4999100 0.2 1001246
08:00−30зюз3698100 0.1 1002191
11:00−29з4895100 0.2 1001430
14:00−27з6894100 0.1 1001594
17:00−26зсз5996100 0.1 1000578
20:00−27зсз4899100 0.1 1001195
9 марта, вт
вт923:00−30з23100100 0.1 100126
02:00−29зюз2399100 0.1 100153
05:00−28зюз3699100 0.2 1002125
08:00−27зюз3998100 0.1 1003276
11:00−25з6995100 0.2 1004495
14:00−23зюз4793100 0.1 1004475
17:00−22зюз4797100 0.2 1004469
20:00−24зюз3499100 0.3 100667
10 марта, ср
ср1023:00−25зюз3499100 0.6 100759
02:00−27юз3399100 0.1 100835
05:00−27юз3398100 0.2 101041
08:00−27юз2398100 0.1 101133
11:00−24ююз3494100 0.1 1012276
14:00−22ююз2389100 0.0 1012344
17:00−24ю229377 0.0 101220
20:00−29ююв229620 0.0 101319
11 марта, чт
чт1123:00−31ююв228937 0.0 101319
02:00−32юв238731 0.0 101219
05:00−33юв238816 0.0 101319
08:00−33юв23850 0.0 101320
11:00−27юв33820 0.0 1013156
14:00−23ююв34800 0.0 1012250
17:00−24юв22870 0.0 101220
20:00−27юв22830 0.0 101319